Regional Weather Roundup
Issued by NWS

Home | Current Version | Previous Version | Text Only | Print | Product List | Glossary Off
Versions: 1 2 3 4 5 6 7 8 9 10 11 12 13 14 15 16 17 18 19 20 21 22 23 24 25 26 27 28 29 30 31 32 33 34 35 36 37 38 39 40 41 42 43 44 45 46 47 48 49 50

000
ASUS43 KMPX 060810
RWRMN
WEATHER ROUNDUP FOR MINNESOTA
NATIONAL WEATHER SERVICE TWIN CITIES/CHANHASSEN MN
300 AM CDT MON JUL 06 2015


NOTE: "FAIR" INDICATES FEW OR NO CLOUDS BELOW 12,000 FEET WITH NO
SIGNIFICANT WEATHER AND/OR OBSTRUCTIONS TO VISIBILITY. N/A MEANS
CURRENT SKY AND/OR WEATHER CONDITIONS ARE NOT AVAILABLE.

MNZ060>063-068>070-060900-
   Twin Cities Metro

CITY           SKY/WX    TMP DP  RH WIND       PRES   REMARKS
TWIN CITIES    TSTM      72  70  93 N14       29.79R FOG
ST PAUL        TSTM      72  70  93 VRB5      29.81R FOG
CRYSTAL        RAIN      72  69  90 NE9       29.78F FOG
BLAINE         HVY RAIN  72  72 100 NE10      29.81S
LAKEVILLE      TSTM      72  68  88 CALM      29.75F
EDEN PRAIRIE   TSTM      71  69  93 N8        29.80R FOG
SOUTH ST PAUL  TSTM      71  70  95 E14       29.79R
LAKE ELMO      CLOUDY    70  68  94 E18G28    29.80F
$$
MNZ001>005-007-008-013>017-022>024-027-028-060900-
   Northwest Minnesota

CITY           SKY/WX    TMP DP  RH WIND       PRES   REMARKS
BEMIDJI        CLOUDY    62  61  95 N5        29.90F FOG
HALLOCK        CLOUDY    59  54  82 N12G17    29.97R
ROSEAU         PTCLDY    57  52  82 N8        29.96R
WARROAD        MOCLDY    57  54  88 NW8       29.95R FOG
THIEF RVR FALL MOCLDY    63  57  82 N13       29.94R
CROOKSTON      PTCLDY    63  61  94 N8        29.94R FOG
FOSSTON          N/A     61  59  94 CALM      29.93R FOG
DETROIT LAKES  CLOUDY    66  61  82 NE8       29.91R HAZE
MOORHEAD       CLOUDY    64  61  88 N10       29.91R FOG
PARK RAPIDS    CLOUDY    67  61  81 N10       29.88S
MAHNOMEN       FAIR      63  62  94 N6        29.92R FOG
$$
MNZ006-009>011-018-025>026-060900-
   North Central Minnesota

CITY           SKY/WX    TMP DP  RH WIND       PRES   REMARKS
BAUDETTE       CLOUDY    64  59  83 N8        29.90R HAZE
FLAG ISLAND    MOCLDY    59  52  77 N20       29.93R
INTL FALLS     PTCLDY    54  54 100 CALM      29.89R FOG
WASKISH        CLOUDY    61  59  94 N3        29.91R FOG
BIG FORK         N/A     59  57  94 CALM      29.89S FOG
LONGVILLE      CLOUDY    64  63  94 N6        29.88R
GRAND RAPIDS   MOCLDY    63  61  94 N8        29.87F
CRANE LAKE       N/A     54  54 100 CALM      29.88S VSB 3/4
COOK           MOCLDY    55  55 100 CALM      29.89S FOG
WALKER         PTSUNNY   63  61  93 N5        29.88S
$$
MNZ012-019>021-037-060900-
   Northeast Minnesota

CITY           SKY/WX    TMP DP  RH WIND       PRES   REMARKS
DULUTH         CLOUDY    66  64  93 CALM      29.83S FOG
ELY            MOCLDY    61  61 100 CALM      29.86S
HIBBING        MOCLDY    63  60  90 N6        29.87S
DULUTH HARBOR  CLOUDY    66  64  94 CALM      29.81S
TWO HARBORS    MOCLDY    68  63  83 NW3       29.80F
SILVER BAY     MOCLDY    66  64  94 CALM      29.79F
GRAND MARAIS     N/A     54  54 100 SW6       29.77F
G MARAIS ARPRT PTCLDY    63  61  94 NW3       29.83F
$$
MNZ029>031-032-039>041-046>048-054>057-064-060900-
   West Central Minnesota

CITY           SKY/WX    TMP DP  RH WIND       PRES   REMARKS
FERGUS FALLS   CLOUDY    70  63  78 NE10      29.85S
WHEATON        DRIZZLE   64  63  94 N10       29.86F
MORRIS         LGT RAIN  70  66  88 N8        29.82S
ALEXANDRIA     CLOUDY    68  65  90 NE12G21   29.84S
ELBOW LAKE     LGT RAIN  69  64  85 N12G17    29.84S
WADENA         CLOUDY    64  63  94 N8        29.87R
GLENWOOD       CLOUDY    70  66  88 N12G20    29.82F
APPLETON       LGT RAIN  72  66  83 N10       29.81R
BENSON         LGT RAIN  70  66  88 NE8       29.80S
ORTONVILLE     LGT RAIN  68  64  88 N12       29.83S
MADISON        RAIN      70  66  88 N13       29.82F
WILLMAR        LGT RAIN  72  70  94 NE5       29.82R
$$
MNZ033>034-036-042>043-049>051-058-059-060900-
   Central Minnesota

CITY           SKY/WX    TMP DP  RH WIND       PRES   REMARKS
ST CLOUD       CLOUDY    69  68  96 N5        29.79F
SAUK CENTRE    LGT RAIN  69  66  92 N7        29.82S
PAYNESVILLE    CLOUDY    67  66  97 N8        29.81R
AITKIN         CLOUDY    66  61  82 N5        29.84S
PINE RIVER       N/A     66  61  82 N8        29.90F
BRAINERD       CLOUDY    68  66  93 NE9       29.84F
STAPLES        CLOUDY    66  64  94 N7        29.85S
LONG PRAIRIE   MOCLDY    68  64  88 N7        29.82R
LITTLE FALLS   CLOUDY    64  64 100 CALM      29.77F
LITCHFIELD     DRIZZLE   72  72 100 CALM      29.80R
BUFFALO        LGT RAIN  69  67  92 CALM      29.80F
MAPLE LAKE     LGT RAIN  69  69  97 CALM      29.80F
$$
MNZ037-044-045-052-053-060900-
   East Central Minnesota

CITY           SKY/WX    TMP DP  RH WIND       PRES   REMARKS
PRINCETON      LGT RAIN  72  70  94 CALM      29.78F
MORA           RAIN      64  64 100 CALM      29.81F
CAMBRIDGE      RAIN      72  63  73 NE3       29.77F
RUSH CITY      LGT RAIN  68  66  94 SE6       29.82F
MOOSE LAKE     CLOUDY    64  64 100 CALM      29.82R
HINCKLEY       RAIN      68  68 100 CALM      29.81F
CLOQUET        FOG       64  63  94 NW5       29.83S VSB 1/2
MCGREGOR       CLOUDY    66  64  94 N6        29.85F
$$
MNZ071>073-080-081-089-090-097-098-060900-
   Southwest Minnesota

CITY           SKY/WX    TMP DP  RH WIND       PRES   REMARKS
GRANITE FALLS  LGT RAIN  69  68  96 CALM      29.83R
CANBY          RAIN      69  67  93 NW13      29.84R
MARSHALL       CLOUDY    70  63  78 NW10        N/A
REDWOOD FALLS  RAIN      70  68  93 NE6       29.79S FOG
OLIVIA         RAIN      68  64  88 CALM      29.79S
PIPESTONE      HVY RAIN  70  66  88 N5        29.83R
WINDOM         TSTM      70  68  94 E5G30     29.80F
WORTHINGTON    CLOUDY    70  66  88 N8        29.84R
JACKSON        CLOUDY    73  70  88 N8        29.81R
TRACY          CLOUDY    70  70 100 NW7       29.84R
SLAYTON        RAIN      68  68 100 CALM      29.84R
$$
MNZ065>067-074>077-082>085-091>093-060900-
   South Central Minnesota

CITY           SKY/WX    TMP DP  RH WIND       PRES   REMARKS
MANKATO        CLOUDY    73  68  83 NW16      29.77R THUNDER
NEW ULM        TSTM      70  70 100 N13G20    29.78F
ST JAMES       HVY RAIN  73  72  94 W13       29.80R
FAIRMONT       CLOUDY    75  66  73 SW14G20   29.77R
GLENCOE        TSTM      73  72  97 E6        29.81R
FARIBAULT      CLOUDY    73  68  83 SE13      29.75F
OWATONNA       CLOUDY    75  66  73 S20G25    29.76F
WASECA         CLOUDY    73  68  83 S18G25    29.75F
ALBERT LEA     CLOUDY    73  66  78 S16G23    29.78F
$$
MNZ078>079-086>088-094>096-060900-
   Southeast Minnesota

CITY           SKY/WX    TMP DP  RH WIND       PRES   REMARKS
ROCHESTER      CLOUDY    72  68  87 S17       29.82F
RED WING       TSTM      73  70  88 SE13      29.77F
STANTON        CLOUDY    73  68  83 S12       29.75S
DODGE CENTER   CLOUDY    73  68  83 S22G28    29.78F
WINONA         CLOUDY    73  68  83 S5        29.82F
AUSTIN         CLOUDY    75  68  78 S15G21    29.81F
PRESTON        CLOUDY    70  66  88 S15G24    29.85F
$$
ABBREVIATIONS USED IN REMARKS
   TC - TEMPERATURES IN CELSIUS
  WCI - WIND CHILL INDEX
   HX - HEAT INDEX
  VSB - VISIBILITY
$$



USA.gov is the U.S. government's official web portal to all federal, state and local government web resources and services.